Starlink 6262

operational
NORAD ID: 57091 Int'l Des: 2023-088 Owner: SPXS Country: US Constellation: starlink
LEOCIRCULAR

Über Starlink 6262

Beschreibung wird geladen...

Live-Position

3D-Globus wird geladen...

Nächste Überflüge

Höhenverlauf

Altitude vs Time

uPlot chart will show altitude changes over time

Zweizeiliger Elementsatz

1 57091U 23088AV 25353.53250069 .00000766 00000-0 71787-4 0 9994
2 57091 43.0026 169.8737 0001085 252.7977 107.2746 15.02535228138465
Epoch: 19. Dez. 2025 • Age: 22 hours

Aktueller Status

Höhe 570.6 km
Geschwindigkeit 7.58 km/s
Subsatellitenpunkt -40.21°S, 150.78°W
Startdatum 22. Juni 2023
Alter 2.4 years
Typ internet

Technische Details

Klassifizierung Payload
Masse 305.00 kg
Trockenmasse 290.00 kg
Gesamtmasse 305.00 kg
Länge 0.20 m
Durchmesser 2.80 m
Spannweite 9.00 m
Form Box + pan
Hersteller SPXS
Bus-Typ Starlink
Phasenstatus In Orbit
Besitzer/Staat SPXS/US

Große Konstellationen

Loading constellations...